This is the latest recevied weather packets stored in our database for station/object CT1ETE-13. If no packets are shown the sender has not sent any weather packets the latest 10 day(s).
| Time | Temp. | Humidity | Pressure | Rain* | Wind** | Luminosity | Snow |
|---|---|---|---|---|---|---|---|
| 1777758480 | 13.89° C | 83% | 1014.9 hPa | 0.25 mm | - | - | - |
| 1777757580 | 13.89° C | 84% | 1015 hPa | 0 mm | - | - | - |
| 1777756680 | 13.89° C | 85% | 1015 hPa | 0 mm | - | - | - |
| 1777755780 | 13.89° C | 85% | 1014.9 hPa | 0 mm | - | - | - |
| 1777754877 | 13.89° C | 85% | 1014.9 hPa | 0 mm | - | - | - |
| 1777753975 | 13.89° C | 86% | 1014.7 hPa | 0 mm | - | - | - |
| 1777753076 | 13.89° C | 86% | 1014.5 hPa | 0 mm | - | - | - |
| 1777752176 | 13.89° C | 86% | 1014.5 hPa | 0 mm | - | - | - |
| 1777751272 | 14.44° C | 85% | 1014.3 hPa | 0 mm | - | - | - |
| 1777750781 | 14.44° C | 85% | 1014.4 hPa | 0 mm | - | - | - |
| 1777749531 | 15° C | 84% | 1014.3 hPa | 0 mm | - | - | - |
| 1777748571 | 15° C | 82% | 1014.3 hPa | 0 mm | - | - | - |
| 1777747672 | 16.11° C | 81% | 1014.2 hPa | 0 mm | - | - | - |
| 1777746772 | 16.11° C | 79% | 1014.1 hPa | 0 mm | - | - | - |
| 1777745871 | 16.67° C | 79% | 1014.2 hPa | 0 mm | - | - | - |
| 1777745031 | 16.67° C | 79% | 1014.2 hPa | 0 mm | - | - | - |
| 1777744071 | 16.11° C | 80% | 1014.2 hPa | 0 mm | - | - | - |
| 1777743169 | 16.11° C | 83% | 1014.2 hPa | 0 mm | - | - | - |
| 1777742270 | 15.56° C | 83% | 1014.3 hPa | 0 mm | - | - | - |
| 1777741428 | 15.56° C | 82% | 1014.3 hPa | 0 mm | - | - | - |
| 1777740465 | 15.56° C | 82% | 1014.4 hPa | 0 mm | - | - | - |
| 1777739565 | 16.11° C | 82% | 1014.3 hPa | 0.25 mm | - | - | - |
| 1777738666 | 16.11° C | 82% | 1014.3 hPa | 1.02 mm | - | - | - |
| 1777737765 | 16.11° C | 83% | 1014.4 hPa | 2.03 mm | - | - | - |
| 1777736865 | 16.11° C | 83% | 1014.4 hPa | 2.03 mm | - | - | - |
* Rain latest hour (hover to see other rain measurements)
** Current wind speed in m/s (hover to see current wind gust speed)